ARG1682 SABE-SAZS

Flight info

Callsign ARG1682
Flight time 1h 48m
Altitude 38000
Route PAL9 TORUL UT654 ORERA ORERA2Q
Aircraft B738/M-MSDFGHILRVW/LB1

Departure

Time 2026-05-03 21:07
Airport Aeroparque Jorge Newbery (SABE)

Arrival

Time 2026-05-03 22:55
Airport Teniente Luis Candelaria International Airport (SAZS)
Time Latitude Longitude Altitude Speed Heading
2026-05-03 20:24 -34.55967 -58.41014 24 ft 0 kts 58°
2026-05-03 20:47 -34.55969 -58.41018 24 ft 3 kts 58°
2026-05-03 20:47 -34.55983 -58.41042 26 ft 4 kts 45°
2026-05-03 20:48 -34.56002 -58.41058 24 ft 4 kts 347°
2026-05-03 20:48 -34.56017 -58.41047 25 ft 4 kts 316°
2026-05-03 20:48 -34.56035 -58.41024 24 ft 4 kts 308°
2026-05-03 20:48 -34.56045 -58.41009 24 ft 0 kts 308°
2026-05-03 20:51 -34.56036 -58.41023 24 ft 3 kts 303°
2026-05-03 20:51 -34.56033 -58.41034 24 ft 1 kts 282°
2026-05-03 20:51 -34.56033 -58.41037 24 ft 0 kts 277°
2026-05-03 20:53 -34.56034 -58.41044 24 ft 3 kts 265°
2026-05-03 20:54 -34.56069 -58.41060 24 ft 8 kts 158°
2026-05-03 20:54 -34.56158 -58.40915 24 ft 12 kts 120°
2026-05-03 20:54 -34.56177 -58.40825 24 ft 11 kts 111°
2026-05-03 20:55 -34.56215 -58.40752 24 ft 10 kts 124°
2026-05-03 20:55 -34.56252 -58.40685 24 ft 9 kts 124°
2026-05-03 20:55 -34.56281 -58.40633 24 ft 7 kts 123°
2026-05-03 20:55 -34.56288 -58.40622 24 ft 0 kts 124°
2026-05-03 20:56 -34.56290 -58.40618 24 ft 2 kts 124°
2026-05-03 20:56 -34.56314 -58.40579 24 ft 8 kts 133°
2026-05-03 20:57 -34.56335 -58.40555 24 ft 0 kts 138°
2026-05-03 20:59 -34.56336 -58.40555 24 ft 0 kts 138°
2026-05-03 21:00 -34.56350 -58.40539 24 ft 5 kts 138°
2026-05-03 21:00 -34.56357 -58.40531 24 ft 4 kts 138°
2026-05-03 21:00 -34.56362 -58.40526 24 ft 0 kts 138°
2026-05-03 21:01 -34.56364 -58.40524 24 ft 1 kts 138°
2026-05-03 21:01 -34.56380 -58.40506 24 ft 5 kts 138°
2026-05-03 21:01 -34.56404 -58.40480 24 ft 3 kts 138°
2026-05-03 21:02 -34.56407 -58.40478 24 ft 0 kts 138°
2026-05-03 21:04 -34.56417 -58.40467 24 ft 4 kts 138°
2026-05-03 21:05 -34.56455 -58.40425 24 ft 9 kts 138°
2026-05-03 21:05 -34.56511 -58.40385 24 ft 10 kts 180°
2026-05-03 21:05 -34.56558 -58.40418 24 ft 4 kts 239°
2026-05-03 21:05 -34.56552 -58.40453 24 ft 2 kts 303°
2026-05-03 21:06 -34.56552 -58.40454 24 ft 0 kts 303°
2026-05-03 21:06 -34.56522 -58.40508 24 ft 34 kts 304°
2026-05-03 21:07 -34.56233 -58.41026 25 ft 112 kts 304°
2026-05-03 21:07 -34.55670 -58.42035 72 ft 169 kts 302°
2026-05-03 21:07 -34.55017 -58.43237 855 ft 173 kts 302°
2026-05-03 21:07 -34.54122 -58.44288 1477 ft 195 kts 335°
2026-05-03 21:08 -34.52719 -58.44389 2025 ft 212 kts 18°
2026-05-03 21:08 -34.51531 -58.43367 2762 ft 214 kts 52°
2026-05-03 21:08 -34.50639 -58.41877 3397 ft 224 kts 48°
2026-05-03 21:08 -34.49406 -58.40624 3934 ft 239 kts 34°
2026-05-03 21:09 -34.47958 -58.39441 4341 ft 266 kts 33°
2026-05-03 21:09 -34.46365 -58.38220 5042 ft 274 kts 31°
2026-05-03 21:09 -34.44715 -58.36995 5582 ft 284 kts 31°
2026-05-03 21:09 -34.43624 -58.36112 6199 ft 282 kts 40°
2026-05-03 21:10 -34.42451 -58.34203 7001 ft 290 kts 71°
2026-05-03 21:10 -34.42265 -58.31843 8137 ft 280 kts 101°
2026-05-03 21:10 -34.42999 -58.29669 8952 ft 284 kts 127°
2026-05-03 21:10 -34.44449 -58.27992 9443 ft 299 kts 150°
2026-05-03 21:11 -34.46443 -58.27242 10155 ft 302 kts 176°
2026-05-03 21:11 -34.48494 -58.27513 10929 ft 304 kts 197°
2026-05-03 21:11 -34.50433 -58.28659 11313 ft 322 kts 217°
2026-05-03 21:11 -34.52054 -58.30664 11454 ft 343 kts 231°
2026-05-03 21:12 -34.53624 -58.32949 11626 ft 362 kts 230°
2026-05-03 21:12 -34.55298 -58.35312 11923 ft 374 kts 229°
2026-05-03 21:12 -34.57020 -58.37708 12420 ft 379 kts 229°
2026-05-03 21:12 -34.58772 -58.40109 12981 ft 381 kts 228°
2026-05-03 21:13 -34.60546 -58.42507 13501 ft 384 kts 228°
2026-05-03 21:13 -34.62347 -58.44920 13977 ft 388 kts 227°
2026-05-03 21:13 -34.64111 -58.47269 14380 ft 392 kts 227°
2026-05-03 21:13 -34.65991 -58.49765 14725 ft 398 kts 227°
2026-05-03 21:14 -34.67844 -58.52223 15248 ft 398 kts 227°
2026-05-03 21:14 -34.69698 -58.54681 15716 ft 399 kts 227°
2026-05-03 21:14 -34.71581 -58.57180 16087 ft 402 kts 227°
2026-05-03 21:14 -34.73476 -58.59695 16436 ft 405 kts 227°
2026-05-03 21:15 -34.75386 -58.62233 16788 ft 408 kts 227°
2026-05-03 21:15 -34.77312 -58.64793 17001 ft 414 kts 227°
2026-05-03 21:15 -34.79245 -58.67365 17341 ft 415 kts 227°
2026-05-03 21:15 -34.81189 -58.69953 17671 ft 417 kts 227°
2026-05-03 21:16 -34.82924 -58.72266 17801 ft 422 kts 227°
2026-05-03 21:16 -34.84888 -58.74885 18100 ft 423 kts 227°
2026-05-03 21:16 -34.86861 -58.77519 18368 ft 425 kts 227°
2026-05-03 21:16 -34.88851 -58.80177 18732 ft 424 kts 227°
2026-05-03 21:17 -34.90834 -58.82828 19294 ft 421 kts 227°
2026-05-03 21:17 -34.92135 -58.84569 19403 ft 424 kts 227°
2026-05-03 21:17 -34.94785 -58.88116 19695 ft 430 kts 228°
2026-05-03 21:17 -34.96771 -58.90776 20671 ft 419 kts 228°
2026-05-03 21:18 -34.98722 -58.93392 21543 ft 414 kts 228°
2026-05-03 21:18 -35.00655 -58.95987 22059 ft 418 kts 228°
2026-05-03 21:18 -35.02610 -58.98611 22471 ft 423 kts 228°
2026-05-03 21:18 -35.04565 -59.01240 22920 ft 426 kts 228°
2026-05-03 21:19 -35.06538 -59.03893 23718 ft 420 kts 228°
2026-05-03 21:19 -35.08489 -59.06520 23951 ft 429 kts 228°
2026-05-03 21:19 -35.10474 -59.09194 24209 ft 436 kts 228°
2026-05-03 21:19 -35.12461 -59.11872 24617 ft 438 kts 228°
2026-05-03 21:20 -35.14485 -59.14603 25074 ft 440 kts 228°
2026-05-03 21:20 -35.16512 -59.17340 25492 ft 442 kts 228°
2026-05-03 21:20 -35.18549 -59.20093 25856 ft 445 kts 228°
2026-05-03 21:20 -35.20600 -59.22867 26207 ft 448 kts 228°
2026-05-03 21:21 -35.22664 -59.25662 26560 ft 450 kts 228°
2026-05-03 21:21 -35.24735 -59.28467 26906 ft 452 kts 228°
2026-05-03 21:21 -35.26818 -59.31291 27240 ft 455 kts 228°
2026-05-03 21:21 -35.28905 -59.34125 27562 ft 457 kts 228°
2026-05-03 21:22 -35.31013 -59.36987 27874 ft 459 kts 228°
2026-05-03 21:22 -35.33124 -59.39856 28178 ft 461 kts 228°
2026-05-03 21:22 -35.35241 -59.42736 28471 ft 463 kts 228°
2026-05-03 21:22 -35.37294 -59.45699 28750 ft 465 kts 232°
2026-05-03 21:23 -35.39209 -59.48845 29029 ft 467 kts 234°
2026-05-03 21:23 -35.41062 -59.52047 29328 ft 469 kts 235°
2026-05-03 21:23 -35.42897 -59.55274 29685 ft 468 kts 235°
2026-05-03 21:23 -35.44727 -59.58489 30082 ft 467 kts 235°
2026-05-03 21:24 -35.46563 -59.61694 30488 ft 465 kts 235°
2026-05-03 21:24 -35.48403 -59.64882 30867 ft 464 kts 234°
2026-05-03 21:24 -35.50245 -59.68056 31219 ft 463 kts 234°
2026-05-03 21:24 -35.52083 -59.71215 31551 ft 463 kts 234°
2026-05-03 21:25 -35.53921 -59.74370 31875 ft 462 kts 234°
2026-05-03 21:25 -35.55771 -59.77546 32210 ft 462 kts 234°
2026-05-03 21:25 -35.57606 -59.80699 32539 ft 461 kts 234°
2026-05-03 21:25 -35.59433 -59.83844 32861 ft 460 kts 234°
2026-05-03 21:26 -35.61263 -59.86996 33182 ft 459 kts 234°
2026-05-03 21:26 -35.63069 -59.90111 33479 ft 459 kts 234°
2026-05-03 21:26 -35.64892 -59.93257 33771 ft 458 kts 234°
2026-05-03 21:26 -35.66708 -59.96396 34073 ft 458 kts 234°
2026-05-03 21:27 -35.68520 -59.99530 34366 ft 457 kts 234°
2026-05-03 21:27 -35.70337 -60.02676 34653 ft 456 kts 234°
2026-05-03 21:27 -35.72142 -60.05803 34938 ft 456 kts 234°
2026-05-03 21:27 -35.73948 -60.08935 35210 ft 455 kts 234°
2026-05-03 21:28 -35.75744 -60.12052 35480 ft 454 kts 234°
2026-05-03 21:28 -35.77549 -60.15189 35746 ft 454 kts 235°
2026-05-03 21:28 -35.79344 -60.18311 36004 ft 453 kts 235°
2026-05-03 21:28 -35.81132 -60.21423 36242 ft 452 kts 235°
2026-05-03 21:29 -35.82916 -60.24530 36471 ft 452 kts 235°
2026-05-03 21:29 -35.84674 -60.27597 36684 ft 452 kts 235°
2026-05-03 21:29 -35.86433 -60.30667 36861 ft 452 kts 234°
2026-05-03 21:29 -35.88214 -60.33777 37105 ft 449 kts 235°
2026-05-03 21:30 -35.89982 -60.36869 37363 ft 448 kts 235°
2026-05-03 21:30 -35.91756 -60.39973 37581 ft 447 kts 235°
2026-05-03 21:30 -35.92822 -60.41840 37701 ft 448 kts 235°
2026-05-03 21:30 -35.93070 -60.42275 37738 ft 448 kts 235°
2026-05-03 21:31 -35.94859 -60.45411 37896 ft 448 kts 235°
2026-05-03 21:31 -35.96629 -60.48516 37995 ft 449 kts 235°
2026-05-03 21:31 -36.00135 -60.54675 38000 ft 443 kts 235°
2026-05-03 21:32 -36.03625 -60.60816 38013 ft 445 kts 235°
2026-05-03 21:32 -36.07126 -60.66989 38008 ft 447 kts 235°
2026-05-03 21:33 -36.10637 -60.73190 38008 ft 449 kts 235°
2026-05-03 21:33 -36.14186 -60.79476 38005 ft 450 kts 235°
2026-05-03 21:34 -36.17680 -60.85712 38002 ft 452 kts 235°
2026-05-03 21:34 -36.21204 -60.92019 38001 ft 452 kts 235°
2026-05-03 21:35 -36.24729 -60.98334 38000 ft 452 kts 235°
2026-05-03 21:35 -36.28253 -61.04658 38000 ft 452 kts 236°
2026-05-03 21:36 -36.31764 -61.10971 38000 ft 451 kts 236°
2026-05-03 21:36 -36.35269 -61.17283 38000 ft 450 kts 236°
2026-05-03 21:37 -36.38757 -61.23577 38000 ft 449 kts 236°
2026-05-03 21:37 -36.42236 -61.29867 38000 ft 448 kts 236°
2026-05-03 21:38 -36.45703 -61.36149 38001 ft 447 kts 236°
2026-05-03 21:38 -36.49162 -61.42429 38001 ft 447 kts 236°
2026-05-03 21:39 -36.52615 -61.48710 38001 ft 446 kts 236°
2026-05-03 21:39 -36.56078 -61.55022 38002 ft 446 kts 236°
2026-05-03 21:40 -36.59517 -61.61299 38002 ft 446 kts 236°
2026-05-03 21:40 -36.62961 -61.67599 38002 ft 446 kts 236°
2026-05-03 21:41 -36.66403 -61.73906 38002 ft 447 kts 236°
2026-05-03 21:41 -36.69822 -61.80183 38002 ft 447 kts 236°
2026-05-03 21:42 -36.73287 -61.86557 38002 ft 448 kts 236°
2026-05-03 21:42 -36.76730 -61.92901 38002 ft 448 kts 236°
2026-05-03 21:43 -36.80144 -61.99204 38002 ft 449 kts 236°
2026-05-03 21:43 -36.83590 -62.05578 38001 ft 449 kts 236°
2026-05-03 21:44 -36.87029 -62.11951 38001 ft 449 kts 236°
2026-05-03 21:44 -36.90470 -62.18339 38001 ft 450 kts 236°
2026-05-03 21:45 -36.93902 -62.24723 38001 ft 450 kts 236°
2026-05-03 21:45 -36.97340 -62.31131 38001 ft 450 kts 236°
2026-05-03 21:46 -37.00760 -62.37518 38001 ft 449 kts 236°
2026-05-03 21:46 -37.04184 -62.43924 38001 ft 449 kts 236°
2026-05-03 21:47 -37.07596 -62.50319 38001 ft 449 kts 236°
2026-05-03 21:47 -37.11012 -62.56734 38001 ft 449 kts 236°
2026-05-03 21:48 -37.14418 -62.63143 38001 ft 448 kts 236°
2026-05-03 21:48 -37.17798 -62.69515 38001 ft 448 kts 236°
2026-05-03 21:49 -37.21193 -62.75928 38001 ft 448 kts 236°
2026-05-03 21:49 -37.24586 -62.82349 38000 ft 448 kts 237°
2026-05-03 21:50 -37.27974 -62.88774 38002 ft 448 kts 237°
2026-05-03 21:50 -37.31357 -62.95202 38003 ft 449 kts 237°
2026-05-03 21:51 -37.34771 -63.01699 38011 ft 456 kts 237°
2026-05-03 21:51 -37.38243 -63.08301 38009 ft 462 kts 237°
2026-05-03 21:52 -37.41747 -63.14966 38008 ft 466 kts 237°
2026-05-03 21:52 -37.45277 -63.21696 38001 ft 468 kts 237°
2026-05-03 21:53 -37.48813 -63.28455 38000 ft 469 kts 237°
2026-05-03 21:53 -37.52338 -63.35206 38000 ft 469 kts 237°
2026-05-03 21:54 -37.55867 -63.41981 38000 ft 469 kts 237°
2026-05-03 21:54 -37.59378 -63.48733 38000 ft 468 kts 237°
2026-05-03 21:55 -37.62896 -63.55513 38000 ft 467 kts 237°
2026-05-03 21:55 -37.66390 -63.62259 38001 ft 466 kts 237°
2026-05-03 21:56 -37.69291 -63.67872 38001 ft 466 kts 237°
2026-05-03 21:56 -37.72773 -63.74622 38001 ft 465 kts 237°
2026-05-03 21:57 -37.76246 -63.81368 38002 ft 464 kts 237°
2026-05-03 21:57 -37.79714 -63.88117 38001 ft 464 kts 237°
2026-05-03 21:58 -37.83176 -63.94870 38001 ft 464 kts 237°
2026-05-03 21:58 -37.86636 -64.01631 38001 ft 464 kts 237°
2026-05-03 21:59 -37.90063 -64.08343 38001 ft 464 kts 237°
2026-05-03 21:59 -37.93513 -64.15114 38001 ft 464 kts 237°
2026-05-03 22:00 -37.96956 -64.21884 38002 ft 464 kts 237°
2026-05-03 22:00 -38.00416 -64.28702 38002 ft 464 kts 237°
2026-05-03 22:01 -38.03854 -64.35492 38002 ft 464 kts 237°
2026-05-03 22:01 -38.07263 -64.42237 38000 ft 464 kts 237°
2026-05-03 22:02 -38.10639 -64.48932 38001 ft 464 kts 237°
2026-05-03 22:02 -38.14053 -64.55726 38001 ft 464 kts 237°
2026-05-03 22:03 -38.17467 -64.62540 38001 ft 464 kts 238°
2026-05-03 22:03 -38.20876 -64.69359 38002 ft 464 kts 238°
2026-05-03 22:04 -38.24289 -64.76200 38001 ft 464 kts 238°
2026-05-03 22:04 -38.27690 -64.83029 38001 ft 464 kts 238°
2026-05-03 22:05 -38.31099 -64.89891 38002 ft 465 kts 238°
2026-05-03 22:05 -38.34495 -64.96741 38002 ft 465 kts 238°
2026-05-03 22:06 -38.37895 -65.03611 38001 ft 465 kts 238°
2026-05-03 22:06 -38.41286 -65.10479 38002 ft 465 kts 238°
2026-05-03 22:07 -38.44681 -65.17371 38000 ft 465 kts 238°
2026-05-03 22:07 -38.48040 -65.24203 38003 ft 465 kts 238°
2026-05-03 22:08 -38.51422 -65.31097 38000 ft 465 kts 238°
2026-05-03 22:08 -38.54794 -65.37984 38002 ft 465 kts 238°
2026-05-03 22:09 -38.58177 -65.44908 38001 ft 464 kts 238°
2026-05-03 22:10 -38.63227 -65.55275 38001 ft 464 kts 238°
2026-05-03 22:10 -38.66586 -65.62186 38001 ft 464 kts 238°
2026-05-03 22:11 -38.69937 -65.69100 38001 ft 464 kts 238°
2026-05-03 22:11 -38.73291 -65.76032 38001 ft 464 kts 238°
2026-05-03 22:12 -38.76637 -65.82964 38001 ft 464 kts 238°
2026-05-03 22:12 -38.79983 -65.89909 38002 ft 464 kts 238°
2026-05-03 22:13 -38.83320 -65.96852 38001 ft 464 kts 238°
2026-05-03 22:13 -38.86661 -66.03819 38001 ft 464 kts 238°
2026-05-03 22:14 -38.89990 -66.10773 38001 ft 464 kts 238°
2026-05-03 22:14 -38.93317 -66.17750 38002 ft 465 kts 239°
2026-05-03 22:15 -38.96626 -66.24717 38001 ft 465 kts 239°
2026-05-03 22:15 -38.99944 -66.31719 38001 ft 465 kts 239°
2026-05-03 22:16 -39.03249 -66.38710 38001 ft 465 kts 239°
2026-05-03 22:16 -39.06559 -66.45725 38002 ft 465 kts 239°
2026-05-03 22:17 -39.09836 -66.52685 38001 ft 465 kts 239°
2026-05-03 22:17 -39.13159 -66.59757 38001 ft 464 kts 239°
2026-05-03 22:18 -39.16421 -66.66716 38001 ft 464 kts 239°
2026-05-03 22:18 -39.19719 -66.73768 38001 ft 464 kts 239°
2026-05-03 22:19 -39.22998 -66.80794 38001 ft 465 kts 239°
2026-05-03 22:19 -39.26301 -66.87887 38002 ft 465 kts 239°
2026-05-03 22:20 -39.29612 -66.95014 38001 ft 465 kts 239°
2026-05-03 22:20 -39.32935 -67.02183 38002 ft 465 kts 239°
2026-05-03 22:21 -39.36212 -67.09268 38001 ft 465 kts 239°
2026-05-03 22:21 -39.39515 -67.16426 38002 ft 465 kts 239°
2026-05-03 22:22 -39.42826 -67.23618 38001 ft 465 kts 239°
2026-05-03 22:22 -39.46135 -67.30822 38001 ft 465 kts 239°
2026-05-03 22:23 -39.49440 -67.38033 38003 ft 465 kts 239°
2026-05-03 22:23 -39.52730 -67.45228 37999 ft 465 kts 239°
2026-05-03 22:24 -39.56022 -67.52445 38003 ft 465 kts 239°
2026-05-03 22:24 -39.59302 -67.59652 38000 ft 465 kts 239°
2026-05-03 22:25 -39.62576 -67.66861 38001 ft 465 kts 239°
2026-05-03 22:25 -39.65837 -67.74061 38001 ft 466 kts 239°
2026-05-03 22:26 -39.69114 -67.81310 38002 ft 466 kts 240°
2026-05-03 22:26 -39.72387 -67.88569 38001 ft 466 kts 240°
2026-05-03 22:27 -39.75656 -67.95836 38002 ft 466 kts 240°
2026-05-03 22:27 -39.78926 -68.03122 38001 ft 466 kts 240°
2026-05-03 22:28 -39.82171 -68.10216 37982 ft 453 kts 237°
2026-05-03 22:28 -39.85634 -68.17037 38011 ft 455 kts 236°
2026-05-03 22:29 -39.89201 -68.23932 38011 ft 463 kts 236°
2026-05-03 22:29 -39.92792 -68.30957 38009 ft 469 kts 237°
2026-05-03 22:30 -39.96382 -68.38051 38004 ft 472 kts 237°
2026-05-03 22:30 -39.99992 -68.45213 38000 ft 473 kts 237°
2026-05-03 22:31 -40.03612 -68.52411 38001 ft 474 kts 237°
2026-05-03 22:31 -40.07228 -68.59613 38000 ft 474 kts 237°
2026-05-03 22:32 -40.10836 -68.66816 38002 ft 474 kts 237°
2026-05-03 22:32 -40.14439 -68.74028 37999 ft 473 kts 237°
2026-05-03 22:33 -40.18027 -68.81223 37999 ft 472 kts 237°
2026-05-03 22:33 -40.21610 -68.88427 37578 ft 475 kts 237°
2026-05-03 22:33 -40.23359 -68.91949 37055 ft 470 kts 237°
2026-05-03 22:34 -40.25135 -68.95529 36436 ft 466 kts 237°
2026-05-03 22:34 -40.26849 -68.98990 35825 ft 463 kts 237°
2026-05-03 22:34 -40.28592 -69.02512 35224 ft 461 kts 237°
2026-05-03 22:34 -40.30320 -69.06009 34758 ft 459 kts 237°
2026-05-03 22:35 -40.32047 -69.09507 34276 ft 464 kts 237°
2026-05-03 22:35 -40.33777 -69.13013 33763 ft 470 kts 237°
2026-05-03 22:35 -40.35527 -69.16563 33263 ft 472 kts 237°
2026-05-03 22:35 -40.37278 -69.20121 32607 ft 473 kts 237°
2026-05-03 22:36 -40.39026 -69.23672 32130 ft 470 kts 237°
2026-05-03 22:36 -40.40766 -69.27214 31618 ft 468 kts 237°
2026-05-03 22:36 -40.42499 -69.30744 31131 ft 470 kts 237°
2026-05-03 22:36 -40.44248 -69.34312 30641 ft 474 kts 237°
2026-05-03 22:37 -40.46013 -69.37917 30132 ft 479 kts 237°
2026-05-03 22:37 -40.47786 -69.41542 29610 ft 479 kts 237°
2026-05-03 22:37 -40.49558 -69.45170 29072 ft 479 kts 237°
2026-05-03 22:37 -40.51288 -69.48717 28536 ft 480 kts 237°
2026-05-03 22:38 -40.53073 -69.52380 27946 ft 487 kts 237°
2026-05-03 22:38 -40.54913 -69.56160 27365 ft 493 kts 237°
2026-05-03 22:38 -40.56764 -69.59968 26773 ft 498 kts 237°
2026-05-03 22:38 -40.58616 -69.63782 26188 ft 488 kts 237°
2026-05-03 22:39 -40.60427 -69.67516 25626 ft 481 kts 237°
2026-05-03 22:39 -40.62221 -69.71220 25045 ft 478 kts 237°
2026-05-03 22:39 -40.64000 -69.74897 24458 ft 475 kts 238°
2026-05-03 22:39 -40.65175 -69.77328 24066 ft 473 kts 238°
2026-05-03 22:40 -40.66933 -69.80971 23481 ft 470 kts 238°
2026-05-03 22:40 -40.69269 -69.85815 22690 ft 466 kts 238°
2026-05-03 22:40 -40.70994 -69.89397 22095 ft 462 kts 238°
2026-05-03 22:40 -40.72132 -69.91763 21696 ft 459 kts 238°
2026-05-03 22:41 -40.73834 -69.95306 21105 ft 455 kts 238°
2026-05-03 22:41 -40.75517 -69.98812 20512 ft 450 kts 238°
2026-05-03 22:41 -40.77184 -70.02289 19923 ft 445 kts 238°
2026-05-03 22:41 -40.78827 -70.05720 19328 ft 440 kts 238°
2026-05-03 22:42 -40.80454 -70.09120 18757 ft 436 kts 238°
2026-05-03 22:42 -40.82063 -70.12488 18182 ft 432 kts 238°
2026-05-03 22:42 -40.83658 -70.15829 17611 ft 428 kts 238°
2026-05-03 22:42 -40.85239 -70.19145 17048 ft 425 kts 238°
2026-05-03 22:43 -40.86765 -70.22348 16499 ft 421 kts 238°
2026-05-03 22:43 -40.88276 -70.25524 15957 ft 418 kts 238°
2026-05-03 22:43 -40.89817 -70.28765 15397 ft 414 kts 238°
2026-05-03 22:43 -40.91342 -70.31978 14842 ft 411 kts 238°
2026-05-03 22:44 -40.92853 -70.35163 14267 ft 406 kts 238°
2026-05-03 22:44 -40.94337 -70.38295 13258 ft 398 kts 238°
2026-05-03 22:44 -40.95794 -70.41373 12138 ft 392 kts 238°
2026-05-03 22:44 -40.97227 -70.44399 11027 ft 386 kts 238°
2026-05-03 22:45 -40.98762 -70.47246 9925 ft 381 kts 231°
2026-05-03 22:45 -41.00454 -70.49872 9438 ft 360 kts 229°
2026-05-03 22:45 -41.02006 -70.52272 9481 ft 328 kts 230°
2026-05-03 22:45 -41.03410 -70.54502 9490 ft 302 kts 231°
2026-05-03 22:46 -41.04697 -70.56574 9501 ft 282 kts 231°
2026-05-03 22:46 -41.05921 -70.58558 9549 ft 277 kts 231°
2026-05-03 22:46 -41.07126 -70.60513 9558 ft 278 kts 231°
2026-05-03 22:46 -41.08347 -70.62498 9567 ft 278 kts 231°
2026-05-03 22:47 -41.09565 -70.64478 9570 ft 279 kts 231°
2026-05-03 22:47 -41.10803 -70.66493 9198 ft 284 kts 231°
2026-05-03 22:47 -41.12032 -70.68494 9058 ft 277 kts 231°
2026-05-03 22:47 -41.13230 -70.70446 8915 ft 269 kts 231°
2026-05-03 22:48 -41.14391 -70.72338 8792 ft 261 kts 231°
2026-05-03 22:48 -41.15520 -70.74179 8683 ft 254 kts 231°
2026-05-03 22:48 -41.16619 -70.75972 8550 ft 247 kts 231°
2026-05-03 22:48 -41.17686 -70.77714 8451 ft 240 kts 231°
2026-05-03 22:49 -41.18735 -70.79427 8197 ft 238 kts 231°
2026-05-03 22:49 -41.19775 -70.81128 7983 ft 237 kts 231°
2026-05-03 22:49 -41.20810 -70.82821 7740 ft 235 kts 231°
2026-05-03 22:49 -41.21839 -70.84504 7505 ft 234 kts 231°
2026-05-03 22:50 -41.22862 -70.86179 7258 ft 233 kts 231°
2026-05-03 22:50 -41.23875 -70.87845 7036 ft 230 kts 233°
2026-05-03 22:50 -41.24436 -70.89762 6774 ft 223 kts 272°
2026-05-03 22:50 -41.23934 -70.91622 6602 ft 211 kts 301°
2026-05-03 22:51 -41.23234 -70.93290 6362 ft 204 kts 297°
2026-05-03 22:51 -41.22579 -70.94938 6079 ft 200 kts 297°
2026-05-03 22:51 -41.21948 -70.96544 5799 ft 197 kts 298°
2026-05-03 22:51 -41.21280 -70.98155 5424 ft 197 kts 297°
2026-05-03 22:52 -41.20693 -70.99738 5162 ft 185 kts 295°
2026-05-03 22:52 -41.20170 -71.01231 4946 ft 170 kts 294°
2026-05-03 22:52 -41.19691 -71.02608 4701 ft 161 kts 294°
2026-05-03 22:52 -41.19226 -71.03946 4491 ft 159 kts 294°
2026-05-03 22:53 -41.18767 -71.05265 4285 ft 160 kts 294°
2026-05-03 22:53 -41.18296 -71.06614 4090 ft 158 kts 295°
2026-05-03 22:53 -41.17834 -71.07906 3898 ft 156 kts 295°
2026-05-03 22:53 -41.17375 -71.09207 3661 ft 156 kts 294°
2026-05-03 22:54 -41.16933 -71.10523 3415 ft 156 kts 294°
2026-05-03 22:54 -41.16490 -71.11812 3258 ft 153 kts 294°
2026-05-03 22:54 -41.16038 -71.13105 3037 ft 155 kts 294°
2026-05-03 22:54 -41.15588 -71.14408 2800 ft 154 kts 294°
2026-05-03 22:55 -41.15170 -71.15606 2749 ft 120 kts 295°
2026-05-03 22:55 -41.14906 -71.16361 2754 ft 65 kts 295°
2026-05-03 22:55 -41.14738 -71.16845 2749 ft 27 kts 295°
2026-05-03 22:55 -41.14694 -71.16967 2749 ft 13 kts 300°
2026-05-03 22:56 -41.14636 -71.17008 2750 ft 4 kts 285°
2026-05-03 22:56 -41.14669 -71.17012 2750 ft 11 kts 144°
2026-05-03 22:56 -41.14730 -71.16864 2751 ft 24 kts 115°
2026-05-03 22:56 -41.14800 -71.16666 2750 ft 23 kts 115°
2026-05-03 22:57 -41.14863 -71.16486 2752 ft 14 kts 114°
2026-05-03 22:57 -41.14893 -71.16378 2754 ft 12 kts 90°
2026-05-03 22:57 -41.14852 -71.16316 2751 ft 6 kts 25°
2026-05-03 22:57 -41.14808 -71.16289 2750 ft 6 kts 25°
2026-05-03 22:58 -41.14767 -71.16259 2748 ft 7 kts 36°
2026-05-03 22:58 -41.14725 -71.16237 2748 ft 7 kts
2026-05-03 22:58 -41.14688 -71.16248 2748 ft 3 kts 346°
2026-05-03 22:58 -41.14670 -71.16253 2748 ft 3 kts 347°
2026-05-03 22:59 -41.14657 -71.16237 2749 ft 2 kts 53°
2026-05-03 22:59 -41.14654 -71.16226 2748 ft 0 kts 69°